Location: Buckeye Ditch
(40.9104°N, 122.9517°W)
Time: 10:54:04
(UTC+00:00)

Cosmos 1470 Rocket - Pass Details

Date: 13 April 2024
Orbit: 601 x 629 km, 82.5° (Epoch: 24 May)

Event Time Altitude Azimuth Distance (km) Brightness Sun altitude
Rises 12:22:44 0° 353° (N) 2,889 7.2 -13.7°
Reaches altitude 10° 12:24:57 10° 355° (N) 1,984 6.4 -13.3°
Maximum altitude 12:29:21 79° 82° (E) 635 3.7 -12.6°
Drops below altitude 10° 12:33:45 10° 169° (S) 1,985 6.0 -11.8°
Sets 12:35:59 0° 171° (S) 2,891 6.9 -11.4°
